< < Back
Terminal Aerodrome Forecast


Current Version              Previous Versions:   1  2  3  4  5  6  7  8  9  

Terminal Aerodrome Forecast

997
FTUS44 KMOB 230500
TAFMOB
TAF
KMOB 230534Z 2306/2406 33003KT 6SM BR SKC
      TEMPO 2309/2313 2SM BR
     FM231800 15006KT P6SM SCT035
     FM240200 VRB03KT P6SM SKC=



Latest METAR

140
SAUS80 KWBC 240400 CCA
MTRMOB
METAR KMOB 240356Z 00000KT 10SM FEW065 19/18 A2994 RMK AO2 SLP136
T01890183


USA.gov is the U.S. government's official web portal to all federal, state and local government web resources and services.